Усть-Илга

Россия / Иркутская область     55°00′33″N   105°04′50″E
темп.,
°C
ветер,
м/с
пор.,
м/с
влажн.,
%
обл.,
%
осадки,
мм/ч
давл.,
гПа
погр.,
м
19 мая, ср
ср1923:00+2з115431 0.0 100310
02:000з116050 0.0 100410
05:00−1сз117097 0.0 100510
08:00+6зсз144997 0.0 1005522
11:00+10сз46245 0.0 10042272
14:00+12сз4518100 0.0 10022538
17:00+12ссз3418100 0.0 10012360
20:00+8ссв2530100 0.0 1001105
20 мая, чт
чт2023:00+5св2637100 0.0 1002154
02:00+4св2243100 0.1 100241
05:00+3ссв2149100 0.2 100341
08:00+6ссв113581 0.2 1004434
11:00+11ссв2223100 0.0 10031958
14:00+12св3223100 0.0 10032304
17:00+13св3423100 0.0 10022093
20:00+10ссв3830100 0.0 1003427
21 мая, пт
пт2123:00+6св3937100 0.0 1004410
02:00+4ссв2252100 0.0 100352
05:00+3св2259100 0.0 100260
08:00+4св1257100 0.3 1002390
11:00+6всв2354100 0.2 1002916
14:00+5ссв3564100 0.8 1002927
17:00+2ссз3598100 3.1 1005313
20:00+2сз1394100 5.6 1006255
22 мая, сб
сб2223:00+1з1299100 0.7 1007144
02:00+1ссз2991100 0.9 1007555
05:00+1сз1286100 0.1 100887
08:00+4сз41168100 0.1 10091116
11:00+8ссз61240100 0.0 10082033
14:00+11ссз71126100 0.0 10083235
17:00+11ссз61035100 0.0 10092422
20:00+7сз41060100 0.1 1012975
23 мая, вс
вс2323:00+3зсз258997 0.1 1014199
02:00+1зсз239651 0.1 101554
05:000з229794 0.0 101646
08:00+6сз386997 0.1 1015809
11:00+10сз573975 0.3 10132186
14:00+11сз4634100 0.3 10122517
17:00+11сз4637100 0.0 10122140
20:00+7зсз3769100 0.9 1014319